Probability
0 0 0 0 0 0 0 0 0 0 0 0 0 0 0 0 0 0 0 6 10 16 16 29 42 35 35 42 35 35 35 39 35 32 32 35 29 29 29 29 32 35 35 29 29 26 23 23 23
0 0 0 0 0 0 0 0 0 0 0 0 0 0 0 0 0 0 3 6 10 13 13 26 39 39 39 39 35 32 29 29 35 35 32 39 32 29 26 29 29 26 29 29 19 23 23 23 19
0 0 0 0 0 0 0 0 0 0 0 0 0 0 0 0 0 0 3 6 10 10 10 19 39 42 42 39 35 26 26 26 32 29 29 32 26 26 23 23 23 23 19 23 16 13 13 16 16
0 0 0 0 0 0 0 0 0 0 0 0 0 0 0 0 0 0 3 6 6 10 10 16 42 42 42 39 35 26 26 26 29 29 26 26 19 23 23 26 19 13 19 16 13 13 10 16 13
0 0 0 0 0 0 0 0 0 0 0 0 0 0 0 0 0 0 6 6 6 10 13 13 35 42 42 39 35 29 29 26 23 19 26 19 23 19 16 23 13 13 16 13 10 13 13 10 13
0 0 0 0 0 0 0 0 0 0 0 0 0 0 0 0 0 0 10 10 10 10 13 13 35 42 42 45 35 29 29 23 23 23 19 16 16 23 16 19 16 16 16 13 10 10 13 10 10
0 0 0 0 0 0 0 0 0 0 0 0 0 0 0 0 0 3 13 10 10 6 13 13 19 23 26 26 26 23 19 16 16 10 6 10 16 13 16 16 13 13 13 13 13 10 13 13 6
0 0 0 0 0 0 0 0 0 0 0 0 0 0 0 0 6 13 10 6 10 6 10 10 13 13 16 19 19 16 16 13 10 3 3 3 3 6 6 6 6 10 13 10 10 10 10 6 3
0 0 0 0 0 0 0 0 0 0 0 0 0 0 0 6 13 13 10 10 10 10 10 10 10 10 10 13 10 3 3 3 3 3 3 3 3 3 3 0 6 3 3 10 6 10 10 3 3
0 0 0 0 0 0 0 0 0 0 0 0 0 0 6 10 13 10 10 10 10 6 6 6 6 10 10 6 3 3 3 3 3 3 3 6 6 3 0 0 0 0 0 0 3 3 3 3 0
0 0 0 0 0 0 0 0 0 0 0 0 0 0 6 10 10 10 10 10 10 6 6 6 3 3 3 3 3 3 3 3 3 3 3 3 3 3 0 0 0 0 0 0 0 0 0 0 0
0 0 0 0 0 0 0 0 0 0 0 0 0 3 3 3 10 10 6 6 6 6 3 3 0 0 0 3 0 0 3 3 3 3 3 0 0 0 0 0 0 0 0 0 0 0 0 0 0
0 0 0 0 0 0 0 0 0 0 0 0 0 3 3 3 6 6 6 6 6 6 3 0 0 0 0 0 0 0 0 0 3 3 3 0 0 0 0 0 0 0 0 0 0 0 0 0 0
0 0 0 0 0 0 0 0 0 0 0 0 0 0 3 3 3 3 3 3 3 3 3 0 0 0 0 0 0 0 0 0 0 3 3 0 0 0 0 0 0 0 0 0 0 0 0 0 0
0 0 0 0 0 0 0 0 0 0 0 0 0 0 0 3 3 3 3 3 3 3 3 0 0 0 0 0 0 0 0 0 0 3 3 0 0 0 0 0 0 0 0 0 0 0 0 0 0
0 0 0 0 0 0 0 0 0 0 0 0 0 0 0 0 0 3 3 3 3 3 0 0 0 0 0 0 0 0 0 0 0 3 3 0 0 0 0 0 0 0 0 0 0 0 0 0 0
0 0 0 0 0 0 0 0 0 0 0 0 0 0 0 0 0 3 3 3 3 3 0 0 0 0 0 0 0 0 0 0 0 0 3 0 0 0 0 0 0 0 0 0 0 0 0 0 0
0 0 0 0 0 0 0 0 0 0 0 0 0 0 0 0 0 3 3 3 0 0 0 0 0 0 0 0 0 0 0 0 0 0 0 0 0 0 0 0 0 0 0 0 0 0 0 0 0
0 0 0 0 0 0 0 0 0 0 0 0 0 0 0 0 0 3 3 3 0 0 0 0 0 0 0 0 0 0 0 0 0 0 0 0 0 0 0 0 0 0 0 0 0 0 0 0 0
0 0 0 0 0 0 0 0 0 0 0 0 0 0 0 0 0 3 0 3 0 0 0 0 0 0 0 0 0 0 0 0 0 0 0 0 0 0 0 0 0 0 0 0 0 0 0 0 0
0 0 0 0 0 0 0 0 0 0 0 0 0 0 0 0 0 0 0 0 0 0 0 0 0 0 0 0 0 0 0 0 0 0 0 0 0 0 0 0 0 0 0 0 0 0 0 0 0
0 0 0 0 0 0 0 0 0 0 0 0 0 0 0 0 0 0 0 0 0 0 0 0 0 0 0 0 0 0 0 0 0 0 0 0 0 0 0 0 0 0 0 0 0 0 0 0 0
0 0 0 0 0 0 0 0 0 0 0 0 0 0 0 0 0 0 0 0 0 0 0 0 0 0 0 0 0 0 0 0 0 0 0 0 0 0 0 0 0 0 0 0 0 0 0 0 0
0 0 0 0 0 0 0 0 0 0 0 0 0 0 0 0 0 0 0 0 0 0 0 0 0 0 0 0 0 0 0 0 0 0 0 0 0 0 0 0 0 0 0 0 0 0 0 0 0
0 0 0 0 0 0 0 0 0 0 0 0 0 0 0 0 0 0 0 0 0 0 0 0 0 0 0 0 0 0 0 0 0 0 0 0 0 0 0 0 0 0 0 0 0 0 0 0 0
0 0 0 0 0 0 0 0 0 0 0 0 0 0 0 0 0 0 0 0 0 0 0 0 0 0 0 0 0 0 0 0 0 0 0 0 0 0 0 0 0 0 0 0 0 0 0 0 0
0 0 0 0 0 0 0 0 0 0 0 0 0 0 0 0 0 0 0 0 0 0 0 0 0 0 0 0 0 0 0 0 0 0 0 0 0 0 0 0 0 0 0 0 0 0 0 0 0
0 0 0 0 0 0 0 0 0 0 0 0 0 0 0 0 0 0 0 0 0 0 0 0 0 0 0 0 0 0 0 0 0 0 0 0 0 0 0 0 0 0 0 0 0 0 0 0 0
0 0 0 0 0 0 0 0 0 0 0 0 0 0 0 0 0 0 0 0 0 0 0 0 0 0 0 0 0 0 0 0 0 0 0 0 0 0 0 0 0 0 0 0 0 0 0 0 0
0 0 0 0 0 0 0 0 0 0 0 0 0 0 0 0 0 0 0 0 0 0 0 0 0 0 0 0 0 0 0 0 0 0 0 0 0 0 0 0 0 0 0 0 0 0 0 0 0
Height
5786 5786 5787 5789 5790 5791 5793 5797 5798 5800 5801 5803 5805 5807 5809 5810 5812 5815 5816 5817 5819 5820 5821 5823 5824 5825 5826 5827 5829 5830 5832 5833 5834 5836 5837 5838 5839 5840 5841 5842 5843 5844 5844 5845 5846 5847 5847 5848 5849
5781 5782 5784 5784 5785 5787 5790 5793 5794 5796 5798 5799 5801 5803 5805 5806 5807 5809 5811 5813 5815 5817 5818 5820 5821 5822 5823 5825 5826 5828 5829 5831 5832 5833 5835 5836 5837 5838 5839 5840 5841 5842 5843 5844 5844 5845 5846 5847 5848
5776 5777 5779 5779 5781 5783 5786 5788 5790 5791 5793 5795 5797 5799 5800 5803 5804 5805 5808 5810 5812 5814 5815 5816 5818 5819 5820 5822 5823 5825 5826 5828 5829 5831 5832 5833 5834 5836 5837 5838 5839 5840 5841 5842 5843 5843 5844 5845 5846
5771 5773 5773 5775 5776 5779 5781 5783 5785 5787 5788 5790 5792 5794 5796 5798 5800 5802 5803 5806 5808 5810 5812 5813 5814 5815 5817 5818 5820 5821 5823 5824 5826 5827 5829 5830 5832 5833 5834 5836 5837 5838 5839 5840 5841 5841 5842 5843 5844
5766 5767 5768 5769 5772 5774 5776 5778 5780 5781 5783 5785 5787 5789 5791 5793 5795 5797 5799 5801 5804 5806 5808 5809 5811 5812 5813 5814 5816 5818 5819 5820 5822 5824 5825 5827 5828 5830 5831 5833 5834 5835 5836 5837 5838 5839 5840 5840 5841
5761 5761 5763 5764 5767 5769 5771 5773 5775 5776 5778 5780 5782 5783 5786 5788 5790 5792 5794 5796 5799 5801 5803 5804 5806 5808 5809 5810 5812 5813 5815 5816 5818 5820 5822 5823 5825 5826 5828 5829 5831 5832 5833 5834 5835 5836 5836 5838 5839
5755 5756 5757 5759 5761 5764 5766 5768 5769 5771 5773 5775 5776 5778 5780 5782 5784 5787 5789 5791 5794 5796 5798 5800 5801 5803 5805 5806 5808 5809 5811 5812 5814 5816 5818 5819 5821 5822 5824 5826 5827 5828 5829 5830 5831 5832 5833 5834 5835
5748 5750 5751 5753 5755 5758 5760 5761 5763 5765 5767 5769 5770 5772 5774 5776 5778 5781 5783 5786 5788 5790 5792 5794 5796 5798 5800 5801 5803 5805 5806 5808 5809 5811 5813 5815 5817 5818 5820 5821 5823 5824 5826 5827 5827 5828 5829 5830 5831
5741 5744 5745 5747 5750 5752 5754 5755 5757 5758 5760 5762 5763 5766 5768 5770 5772 5775 5778 5780 5782 5784 5786 5788 5790 5792 5794 5796 5798 5799 5801 5803 5804 5806 5808 5810 5812 5814 5815 5817 5819 5820 5821 5822 5823 5824 5825 5826 5827
5735 5736 5739 5741 5743 5745 5747 5748 5750 5752 5754 5755 5757 5759 5761 5763 5766 5768 5771 5774 5776 5778 5780 5782 5784 5786 5788 5790 5792 5794 5796 5798 5800 5801 5803 5805 5807 5809 5810 5812 5814 5815 5816 5817 5818 5819 5820 5821 5822
5729 5731 5733 5734 5736 5737 5739 5741 5742 5744 5747 5749 5750 5752 5754 5756 5759 5761 5764 5766 5768 5771 5773 5776 5778 5780 5782 5784 5787 5789 5791 5793 5794 5796 5798 5799 5801 5803 5805 5807 5808 5810 5811 5812 5813 5814 5815 5816 5817
5723 5725 5726 5727 5729 5731 5732 5734 5736 5737 5740 5742 5743 5745 5747 5748 5751 5753 5755 5758 5761 5764 5766 5769 5772 5774 5776 5778 5780 5782 5784 5787 5789 5790 5792 5794 5796 5797 5799 5801 5802 5804 5805 5807 5808 5808 5809 5811 5812
5717 5718 5719 5720 5722 5724 5725 5727 5728 5731 5733 5734 5736 5738 5740 5741 5743 5745 5748 5751 5753 5756 5759 5762 5765 5767 5769 5772 5774 5776 5778 5780 5782 5784 5786 5788 5789 5791 5793 5794 5796 5797 5799 5800 5801 5803 5804 5805 5806
5711 5712 5713 5714 5715 5717 5718 5720 5721 5724 5725 5727 5728 5730 5732 5733 5735 5737 5740 5743 5745 5748 5751 5754 5757 5759 5762 5764 5766 5769 5771 5773 5775 5777 5779 5781 5782 5784 5786 5788 5789 5791 5792 5794 5795 5796 5797 5799 5800
5705 5705 5706 5707 5708 5710 5711 5713 5714 5717 5718 5719 5720 5722 5723 5725 5727 5729 5732 5735 5737 5740 5743 5746 5749 5751 5754 5756 5758 5761 5763 5765 5767 5769 5771 5773 5775 5777 5778 5780 5782 5783 5785 5787 5788 5789 5791 5792 5794
5698 5699 5700 5701 5701 5702 5705 5706 5708 5708 5710 5711 5712 5714 5715 5717 5719 5721 5724 5726 5729 5732 5735 5737 5740 5742 5745 5747 5750 5752 5754 5757 5759 5761 5763 5765 5767 5768 5770 5772 5774 5775 5776 5779 5780 5782 5784 5785 5787
5691 5692 5693 5695 5695 5695 5696 5698 5700 5700 5702 5703 5704 5706 5708 5709 5711 5713 5715 5717 5720 5723 5725 5728 5731 5733 5736 5738 5741 5743 5745 5747 5749 5751 5754 5756 5758 5760 5762 5764 5765 5767 5769 5770 5772 5774 5776 5778 5779
5686 5686 5687 5688 5688 5688 5688 5690 5692 5692 5693 5695 5696 5697 5699 5701 5703 5704 5706 5708 5711 5713 5716 5719 5721 5724 5726 5729 5731 5733 5736 5738 5740 5742 5744 5746 5748 5750 5752 5754 5756 5758 5760 5762 5764 5766 5768 5770 5772
5680 5680 5680 5681 5681 5680 5681 5682 5683 5684 5685 5686 5688 5689 5691 5692 5694 5695 5697 5699 5701 5704 5706 5709 5712 5714 5717 5719 5722 5724 5726 5728 5730 5732 5734 5736 5738 5740 5742 5745 5747 5749 5751 5753 5754 5757 5759 5761 5763
5673 5673 5673 5673 5673 5672 5673 5674 5675 5675 5676 5678 5679 5680 5681 5683 5685 5686 5688 5690 5692 5695 5697 5700 5702 5705 5708 5710 5712 5714 5716 5718 5721 5722 5724 5726 5728 5730 5732 5735 5737 5739 5741 5743 5745 5748 5750 5752 5753
5667 5666 5666 5665 5665 5665 5664 5666 5667 5668 5667 5668 5670 5671 5672 5674 5676 5677 5679 5681 5683 5686 5688 5691 5693 5696 5698 5700 5702 5705 5707 5709 5711 5713 5714 5716 5718 5720 5722 5724 5727 5729 5731 5734 5736 5738 5740 5742 5744
5661 5660 5659 5657 5657 5657 5657 5655 5660 5660 5660 5661 5661 5662 5664 5665 5666 5668 5670 5672 5674 5676 5678 5681 5683 5686 5688 5690 5692 5695 5697 5699 5701 5702 5704 5706 5707 5709 5711 5714 5716 5718 5721 5723 5725 5728 5730 5732 5733
5654 5653 5652 5650 5649 5648 5648 5647 5650 5651 5652 5653 5654 5654 5655 5656 5657 5659 5660 5662 5664 5667 5669 5671 5673 5676 5678 5680 5683 5685 5687 5689 5691 5692 5694 5695 5697 5699 5701 5703 5705 5707 5710 5713 5715 5716 5719 5721 5723
5646 5646 5644 5642 5641 5640 5641 5639 5640 5642 5643 5644 5644 5645 5646 5647 5648 5650 5651 5652 5654 5656 5658 5660 5663 5666 5668 5670 5672 5675 5677 5679 5681 5682 5684 5685 5687 5689 5691 5693 5694 5697 5699 5701 5703 5705 5707 5710 5712
5639 5638 5636 5634 5632 5633 5633 5631 5633 5635 5635 5635 5635 5635 5636 5637 5638 5640 5641 5642 5644 5646 5648 5650 5652 5655 5657 5659 5662 5664 5666 5668 5670 5672 5673 5675 5677 5678 5680 5682 5683 5685 5688 5690 5692 5694 5696 5698 5700
5631 5630 5629 5626 5625 5625 5624 5623 5626 5626 5625 5625 5626 5626 5627 5628 5628 5629 5631 5632 5634 5636 5638 5640 5642 5644 5646 5648 5651 5653 5655 5657 5659 5660 5662 5664 5666 5667 5669 5670 5672 5674 5676 5678 5680 5682 5684 5686 5688
5624 5623 5621 5619 5616 5615 5615 5616 5617 5617 5616 5616 5616 5616 5617 5618 5619 5619 5620 5622 5623 5625 5627 5629 5631 5633 5635 5637 5639 5641 5644 5645 5647 5649 5650 5652 5654 5655 5657 5658 5660 5662 5663 5665 5667 5669 5671 5674 5676
5617 5615 5613 5610 5608 5606 5606 5607 5608 5607 5607 5607 5607 5607 5607 5607 5608 5609 5610 5611 5612 5614 5616 5617 5619 5621 5623 5625 5627 5629 5631 5633 5635 5636 5638 5640 5641 5643 5644 5646 5648 5649 5650 5652 5654 5656 5659 5661 5663
5609 5608 5605 5603 5601 5599 5596 5601 5600 5598 5597 5597 5597 5597 5597 5597 5597 5597 5598 5600 5601 5602 5604 5605 5607 5609 5611 5613 5615 5617 5618 5620 5622 5624 5625 5627 5628 5630 5632 5633 5635 5636 5638 5639 5641 5643 5646 5648 5650
5601 5599 5597 5596 5594 5591 5589 5593 5591 5589 5587 5587 5587 5587 5587 5586 5586 5586 5587 5588 5589 5591 5592 5594 5595 5597 5598 5600 5602 5604 5605 5607 5608 5610 5612 5613 5615 5617 5619 5620 5621 5623 5624 5626 5628 5630 5632 5635 5637
Wind_Speed
20 21 22 23 23 23 23 21 21 22 22 22 21 21 21 20 20 21 19 18 18 17 17 17 17 17 16 16 16 15 15 14 14 14 14 13 13 12 12 11 11 10 9 9 8 8 9 9 9
22 23 24 24 25 25 23 22 22 23 24 24 23 23 23 22 22 22 21 20 19 19 19 18 18 18 17 17 17 16 16 15 15 15 15 15 14 13 13 12 12 11 11 10 10 10 10 10 10
23 24 25 25 26 25 24 23 23 24 25 25 25 25 25 24 23 23 23 22 21 21 20 19 19 18 18 18 18 17 17 17 17 17 16 16 15 15 14 14 13 13 13 12 12 12 12 11 11
24 25 26 26 26 25 25 24 24 25 25 26 26 27 27 26 26 25 24 24 23 22 22 21 20 20 19 19 19 19 19 18 18 18 18 17 17 16 16 15 15 15 14 14 14 13 13 13 12
25 26 26 27 27 26 26 26 26 26 26 26 27 27 27 27 27 27 26 26 25 24 23 22 22 21 21 21 21 21 21 20 20 20 20 19 19 18 18 17 17 17 17 16 15 15 15 14 13
27 28 28 27 28 27 28 28 28 27 27 27 28 27 28 28 28 28 28 27 26 25 24 24 23 23 23 23 23 23 22 22 22 22 21 21 21 20 20 19 18 18 18 18 18 17 17 16 15
27 28 29 28 28 28 28 28 29 28 28 28 28 28 28 29 29 29 28 27 27 27 26 25 25 24 25 24 24 24 24 24 23 23 23 23 22 22 21 20 20 19 19 19 19 19 18 18 18
28 29 29 30 29 28 28 29 29 29 29 29 29 29 28 29 30 29 29 29 28 28 28 27 26 26 26 26 25 25 24 25 25 24 24 24 23 23 23 22 21 20 20 20 20 20 20 20 20
27 29 30 31 30 30 30 30 30 30 30 30 30 30 29 29 30 30 30 30 30 29 29 28 28 27 27 27 26 26 26 25 25 25 25 24 24 24 23 23 22 22 22 22 22 21 21 21 21
27 28 29 30 31 31 31 30 30 30 31 31 31 31 31 30 30 31 31 31 32 31 31 30 30 29 29 29 28 27 27 26 26 26 26 26 26 25 25 25 25 24 24 24 24 24 23 22 22
26 27 29 30 30 31 32 32 31 31 30 30 31 32 32 31 31 31 32 32 33 33 32 31 31 30 30 29 29 29 28 27 27 27 27 27 27 27 27 26 26 26 25 25 25 25 24 24 23
26 26 28 29 29 31 32 32 32 32 31 31 32 32 33 33 32 32 32 33 33 33 33 33 32 32 31 30 30 30 29 29 29 29 29 28 28 28 28 28 27 28 27 27 26 25 25 25 24
26 26 28 28 29 30 31 32 32 32 32 32 32 34 34 35 34 33 33 33 33 33 34 34 33 33 32 32 31 31 31 30 31 31 31 30 29 30 29 29 29 29 29 28 27 27 27 26 26
25 26 27 28 28 29 30 31 31 31 32 33 33 34 35 34 34 34 34 34 33 34 34 34 34 33 33 33 33 34 33 33 32 32 32 32 32 32 31 30 30 31 31 30 29 28 28 28 27
26 27 28 28 29 29 31 31 30 30 32 33 34 34 34 35 36 35 35 35 35 35 35 35 35 34 34 35 35 35 35 35 35 34 34 34 34 34 33 33 33 33 33 32 31 30 29 29 28
27 27 28 28 29 30 31 31 30 31 32 33 34 33 34 35 35 36 36 36 37 36 36 36 37 37 36 36 36 35 35 35 35 35 36 35 35 35 35 35 34 34 33 33 32 31 30 29 30
26 27 28 28 28 30 31 31 30 31 31 32 33 33 34 35 35 35 36 36 37 37 38 38 38 38 38 38 37 38 37 36 36 37 37 37 36 36 36 35 35 35 35 35 34 33 32 31 31
26 28 29 29 28 29 30 30 30 32 32 32 33 34 34 35 35 36 36 37 38 38 38 39 39 39 39 39 38 38 38 38 37 38 38 38 38 38 38 37 37 37 37 37 36 35 34 34 34
26 28 29 29 29 30 29 30 31 31 33 33 33 34 34 35 36 36 36 37 38 39 39 38 39 39 39 39 39 38 38 39 39 39 39 39 39 39 39 39 39 39 38 38 37 37 36 36 36
26 28 28 29 30 31 31 32 31 31 32 33 33 34 34 35 36 37 37 37 38 39 39 39 39 39 39 39 39 39 39 40 40 39 39 39 39 40 41 41 40 40 40 39 39 38 37 37 37
27 28 29 30 30 31 33 33 31 31 32 32 33 35 35 36 36 37 39 39 38 38 39 39 40 39 39 40 40 40 40 40 40 39 40 40 40 40 41 41 42 42 42 42 41 40 39 39 39
28 28 29 30 31 31 32 34 30 30 32 33 34 35 36 36 37 37 37 39 38 39 39 39 40 41 40 39 40 40 40 40 40 40 40 40 40 40 41 41 42 43 43 43 42 42 41 41 40
28 28 29 30 32 33 32 34 31 31 33 33 34 35 36 36 37 37 37 39 39 40 41 41 41 41 41 39 40 40 40 40 40 40 41 41 41 41 41 41 42 43 43 43 43 42 42 42 42
29 29 30 31 33 33 32 35 33 31 32 32 33 34 35 36 37 38 39 40 40 40 42 42 42 42 42 41 41 41 40 41 41 41 41 42 42 42 42 43 43 43 43 44 45 44 44 44 44
29 30 31 32 34 34 33 35 33 31 31 32 33 34 35 36 38 38 39 40 41 41 42 43 42 43 43 42 43 42 42 43 42 42 43 44 43 43 43 44 43 44 45 45 45 45 45 45 44
30 31 31 33 34 35 34 35 33 31 32 33 34 35 35 37 37 38 40 41 42 42 43 44 43 43 43 43 44 44 44 43 44 43 44 44 45 45 45 45 45 45 46 46 46 47 45 45 45
30 31 31 33 35 35 35 35 33 31 33 34 34 35 36 37 38 38 39 40 42 43 43 43 44 44 44 44 45 46 46 45 45 45 45 46 46 47 47 47 46 46 47 47 47 48 46 46 45
30 31 31 33 35 36 35 34 33 31 32 34 35 35 36 38 38 39 40 40 41 42 43 44 45 45 45 45 46 47 47 47 47 47 46 46 46 47 48 48 47 48 48 48 48 49 48 47 46
30 30 31 33 34 36 38 35 33 33 32 32 34 35 36 37 38 39 40 41 41 42 44 45 46 46 47 47 47 48 49 49 48 48 48 48 48 49 49 49 49 49 50 50 49 50 49 49 48
31 31 31 32 34 35 37 36 34 35 34 34 35 35 36 37 37 37 38 40 41 43 44 46 47 46 47 47 48 49 50 50 50 50 50 50 50 50 50 50 49 50 50 50 50 50 50 50 49
Wind_Direction
250 248 247 246 246 248 249 248 248 246 246 245 244 244 245 244 243 245 244 243 243 243 243 244 245 244 243 243 242 240 240 241 241 240 239 239 239 239 239 237 236 236 236 235 234 233 228 224 224
250 249 247 247 247 249 250 250 250 249 247 246 245 244 244 245 245 245 245 244 244 243 243 245 246 244 242 242 241 240 239 240 241 241 240 240 240 240 240 238 238 237 236 237 237 235 232 227 228
252 250 248 248 249 250 252 251 250 249 249 248 246 245 244 244 246 246 247 246 245 244 243 244 245 243 240 239 240 240 240 239 240 242 242 241 241 239 241 240 240 240 239 239 240 236 236 232 233
253 252 251 250 250 250 252 252 252 249 248 248 247 247 247 246 247 246 247 246 245 245 245 246 245 243 241 240 240 241 241 241 240 241 242 243 243 241 242 242 243 242 242 241 243 242 241 239 238
253 252 252 251 250 250 250 250 251 251 249 249 249 249 248 247 247 247 246 246 246 247 247 246 245 244 243 242 241 242 242 243 241 242 243 243 244 243 244 244 246 246 246 247 247 246 244 244 244
254 252 253 253 252 251 250 250 250 251 251 250 249 249 247 247 247 246 246 246 246 246 246 246 246 246 244 244 243 244 244 243 243 241 243 245 245 244 244 245 247 248 248 249 249 248 250 249 249
255 253 253 253 252 251 252 252 252 251 251 251 251 249 246 245 245 244 244 245 245 245 245 247 247 247 246 245 245 244 244 245 245 242 242 245 247 246 244 245 246 247 249 250 251 250 250 252 252
257 255 254 253 252 252 253 253 253 251 252 251 251 250 247 245 245 243 243 244 245 245 247 248 247 247 246 246 246 245 244 245 245 245 245 247 248 247 245 246 246 247 249 251 252 252 251 251 252
256 254 253 253 253 253 253 254 254 252 252 251 251 250 248 246 246 243 243 244 245 246 247 247 246 247 246 245 245 245 245 244 244 245 247 247 248 248 248 247 247 249 251 253 253 252 251 251 252
257 256 255 255 254 254 254 254 254 253 253 252 251 250 248 248 247 245 244 245 245 245 247 247 247 248 246 245 245 245 245 245 244 244 246 246 246 247 249 248 248 250 253 254 254 254 253 252 253
261 260 258 255 254 254 254 253 254 255 254 254 253 252 250 250 249 247 245 245 245 245 246 246 247 246 245 245 245 246 246 246 246 245 246 247 247 249 249 248 248 250 253 255 255 255 255 252 252
263 262 259 256 255 255 255 254 255 254 254 254 254 252 251 252 249 247 246 244 244 244 244 246 246 246 246 245 245 246 247 247 247 247 249 250 250 252 251 249 249 251 254 255 255 255 255 255 254
264 263 260 258 256 256 257 257 258 255 253 253 253 253 253 253 251 248 247 246 244 245 245 246 246 247 247 247 247 247 248 247 246 247 249 251 252 252 252 251 251 252 253 254 255 254 253 255 256
265 265 263 260 258 257 257 258 258 256 255 254 254 254 254 253 252 251 248 247 246 245 245 246 247 247 247 247 248 250 249 247 247 248 250 251 252 253 251 251 252 253 254 254 254 254 252 253 255
264 264 263 261 260 259 259 258 258 257 256 256 256 256 255 255 254 252 250 248 246 245 246 246 247 248 248 248 249 250 249 249 248 249 250 251 251 251 251 252 253 253 253 253 254 254 252 252 254
265 264 264 263 263 262 262 261 259 258 257 258 257 256 256 255 255 253 251 250 247 246 247 248 248 248 249 248 249 250 249 249 250 250 251 251 252 253 253 252 252 252 251 252 254 255 254 254 254
267 267 266 265 266 265 264 263 261 261 260 259 258 256 255 256 256 254 252 251 248 246 247 248 248 248 250 249 249 250 250 250 250 250 251 252 253 254 253 253 252 251 252 252 253 255 255 255 257
272 270 269 267 268 267 265 264 263 262 260 260 260 258 256 256 256 255 252 251 248 246 247 248 248 247 248 249 249 251 251 250 250 251 251 253 253 253 253 252 252 251 251 252 253 254 254 255 256
275 274 273 270 269 268 265 264 264 263 260 259 259 258 257 257 255 254 253 251 249 247 246 247 248 248 248 248 249 249 250 251 252 253 254 253 253 252 252 252 252 251 250 252 251 253 255 256 256
277 276 275 273 271 270 266 264 264 263 262 261 259 258 257 258 256 253 252 251 250 248 247 246 248 248 249 249 249 249 251 252 252 254 255 254 253 252 251 251 251 250 250 251 252 254 255 256 257
277 278 277 275 272 271 269 265 265 262 262 261 259 259 258 258 256 254 252 252 250 249 248 248 249 248 249 249 249 250 251 253 254 254 255 254 253 253 253 252 251 251 252 252 254 254 256 257 258
277 279 278 276 274 272 269 268 265 262 261 262 261 261 260 260 258 255 253 252 251 250 250 249 249 249 250 250 250 251 252 253 254 253 253 253 253 255 255 255 253 252 253 253 254 255 255 256 257
281 281 278 276 275 274 271 271 269 265 264 264 264 263 261 260 259 257 255 253 251 250 250 250 250 250 250 250 251 251 252 253 254 254 255 255 255 255 255 255 254 254 254 254 255 255 255 256 257
282 282 280 277 277 276 274 274 272 269 266 266 266 265 263 260 258 257 257 255 252 251 249 250 250 249 250 250 252 252 252 254 255 255 255 255 255 255 255 255 255 255 256 256 255 257 257 257 258
283 283 283 281 279 278 277 275 275 273 268 266 266 266 264 261 260 259 258 256 253 253 251 251 250 249 251 251 252 252 252 252 254 256 255 255 256 257 258 258 258 257 257 258 258 257 258 259 259
283 283 282 282 283 284 280 278 278 275 270 269 268 267 265 262 261 260 259 257 255 253 252 252 251 251 252 252 253 252 252 253 254 256 256 256 256 257 259 260 258 258 259 259 259 258 260 259 259
284 283 283 282 282 284 283 280 279 276 272 270 268 267 266 264 262 260 259 258 256 254 252 252 252 252 253 254 253 252 253 255 255 256 256 255 256 257 258 260 259 259 261 261 261 260 261 260 260
285 284 283 282 282 283 285 283 282 279 275 270 268 267 266 266 263 260 260 259 257 255 254 254 253 253 254 254 254 254 254 255 257 257 257 256 256 258 259 259 260 261 262 262 262 261 261 260 260
284 282 282 282 281 281 284 284 282 281 277 272 270 269 268 266 265 263 262 261 259 257 255 255 255 256 254 254 254 254 254 256 257 258 257 257 256 256 258 259 260 261 262 261 261 261 260 260 260
285 282 282 281 281 280 282 285 283 281 279 274 272 271 268 266 266 266 264 262 261 259 257 256 257 257 256 255 255 255 255 256 257 258 258 257 257 257 257 258 259 260 261 261 261 260 260 260 260